"Sample Date","Sample Time","Sensor Name","Sample Value","Units","Flow Rate","Sample Interval","Sample Volume","Laser Status","Number Channels","Micron Size 0","Counts/Channel 0","Micron Size 1","Counts/Channel 1","Micron Size 2","Counts/Channel 2","Micron Size 3","Counts/Channel 3","Micron Size 4","Counts/Channel 4","Micron Size 5","Counts/Channel 5","Micron Size 6","Counts/Channel 6","Micron Size 7","Counts/Channel 7","Micron Size 8","Counts/Channel 8","Micron Size 9","Counts/Channel 9","Micron Size 10","Counts/Channel 10","Micron Size 11","Counts/Channel 11","Micron Size 12","Counts/Channel 12","Micron Size 13","Counts/Channel 13","Micron Size 14","Counts/Channel 14","Micron Size 15","Counts/Channel 15","Micron Size 16","Counts/Channel 16","Micron Size 17","Counts/Channel 17","Micron Size 18","Counts/Channel 18","Micron Size 19","Counts/Channel 19","Micron Size 20","Counts/Channel 20","Micron Size 21","Counts/Channel 21","Micron Size 22","Counts/Channel 22","Micron Size 23","Counts/Channel 23","Micron Size 24","Counts/Channel 24","Micron Size 25","Counts/Channel 25","Micron Size 26","Counts/Channel 26","Micron Size 27","Counts/Channel 27","Micron Size 28","Counts/Channel 28","Micron Size 29","Counts/Channel 29","Micron Size 30","Counts/Channel 30","Micron Size 31","Counts/Channel 31"
"07/04/06","05:00:02","AMMA06",84197.000,"cc",28348.316,6.00,2834.832,1,6,0.100,39832.000,0.200,34979.000,0.300,7336.000,0.500,1226.000,1.000,822.000,5.000,2.000
"07/04/06","05:00:08","AMMA06",84702.000,"cc",28355.580,6.00,2835.558,1,6,0.100,40031.000,0.200,35416.000,0.300,7287.000,0.500,1191.000,1.000,776.000,5.000,1.000
"07/04/06","05:00:14","AMMA06",83864.000,"cc",28315.377,6.00,2831.538,1,6,0.100,39560.000,0.200,35047.000,0.300,7224.000,0.500,1252.000,1.000,780.000,5.000,1.000
"07/04/06","05:00:20","AMMA06",82228.000,"cc",28319.070,6.00,2831.907,1,6,0.100,38611.000,0.200,34750.000,0.300,6904.000,0.500,1203.000,1.000,759.000,5.000,1.000
"07/04/06","05:00:26","AMMA06",80353.000,"cc",28298.756,6.00,2829.876,1,6,0.100,38027.000,0.200,33585.000,0.300,6733.000,0.500,1238.000,1.000,770.000,5.000,0
"07/04/06","05:00:32","AMMA06",78853.000,"cc",28327.732,6.00,2832.773,1,6,0.100,36987.000,0.200,33344.000,0.300,6552.000,0.500,1183.000,1.000,787.000,5.000,0
"07/04/06","05:00:38","AMMA06",79281.000,"cc",28330.963,6.00,2833.096,1,6,0.100,37509.000,0.200,33296.000,0.300,6530.000,0.500,1168.000,1.000,777.000,5.000,1.000
"07/04/06","05:00:44","AMMA06",79967.000,"cc",28308.289,6.00,2830.829,1,6,0.100,37871.000,0.200,33583.000,0.300,6570.000,0.500,1156.000,1.000,786.000,5.000,1.000
"07/04/06","05:00:50","AMMA06",80367.000,"cc",28295.332,6.00,2829.533,1,6,0.100,38117.000,0.200,33670.000,0.300,6619.000,0.500,1180.000,1.000,780.000,5.000,1.000
"07/04/06","05:00:56","AMMA06",80291.000,"cc",28343.815,6.00,2834.382,1,6,0.100,37885.000,0.200,33658.000,0.300,6800.000,0.500,1208.000,1.000,739.000,5.000,1.000
"07/04/06","05:01:02","AMMA06",80542.000,"cc",28319.461,6.00,2831.946,1,6,0.100,38357.000,0.200,33587.000,0.300,6581.000,0.500,1235.000,1.000,781.000,5.000,1.000
"07/04/06","05:01:08","AMMA06",81274.000,"cc",28332.594,6.00,2833.260,1,6,0.100,38200.000,0.200,34054.000,0.300,7017.000,0.500,1186.000,1.000,817.000,5.000,0
"07/04/06","05:01:14","AMMA06",81635.000,"cc",28289.850,6.00,2828.985,1,6,0.100,38640.000,0.200,34177.000,0.300,6885.000,0.500,1194.000,1.000,739.000,5.000,0
"07/04/06","05:01:20","AMMA06",81839.000,"cc",28343.418,6.00,2834.342,1,6,0.100,38572.000,0.200,34535.000,0.300,6807.000,0.500,1159.000,1.000,766.000,5.000,0
"07/04/06","05:01:26","AMMA06",81728.000,"cc",28307.275,6.00,2830.728,1,6,0.100,38439.000,0.200,34544.000,0.300,6856.000,0.500,1161.000,1.000,728.000,5.000,0
"07/04/06","05:01:32","AMMA06",81813.000,"cc",28305.277,6.00,2830.528,1,6,0.100,38634.000,0.200,34166.000,0.300,6983.000,0.500,1187.000,1.000,842.000,5.000,1.000
"07/04/06","05:01:38","AMMA06",81931.000,"cc",28296.840,6.00,2829.684,1,6,0.100,38824.000,0.200,34325.000,0.300,6913.000,0.500,1162.000,1.000,707.000,5.000,0
"07/04/06","05:01:44","AMMA06",80698.000,"cc",28388.717,6.00,2838.872,1,6,0.100,38244.000,0.200,33789.000,0.300,6739.000,0.500,1197.000,1.000,729.000,5.000,0
"07/04/06","05:01:50","AMMA06",79840.000,"cc",28342.969,6.00,2834.297,1,6,0.100,37750.000,0.200,33640.000,0.300,6495.000,0.500,1220.000,1.000,735.000,5.000,0
"07/04/06","05:01:56","AMMA06",77944.000,"cc",28309.811,6.00,2830.981,1,6,0.100,36798.000,0.200,32819.000,0.300,6379.000,0.500,1206.000,1.000,740.000,5.000,2.000
"07/04/06","05:02:02","AMMA06",78565.000,"cc",28303.604,6.00,2830.361,1,6,0.100,36850.000,0.200,33225.000,0.300,6510.000,0.500,1234.000,1.000,746.000,5.000,0
"07/04/06","05:02:08","AMMA06",79001.000,"cc",28261.295,6.00,2826.130,1,6,0.100,37215.000,0.200,33162.000,0.300,6653.000,0.500,1211.000,1.000,759.000,5.000,1.000
"07/04/06","05:02:14","AMMA06",79669.000,"cc",28314.805,6.00,2831.481,1,6,0.100,37321.000,0.200,33745.000,0.300,6680.000,0.500,1166.000,1.000,757.000,5.000,0
"07/04/06","05:02:20","AMMA06",79084.000,"cc",28284.092,6.00,2828.409,1,6,0.100,37103.000,0.200,33405.000,0.300,6567.000,0.500,1246.000,1.000,762.000,5.000,1.000
"07/04/06","05:02:26","AMMA06",78839.000,"cc",28349.223,6.00,2834.922,1,6,0.100,36761.000,0.200,33391.000,0.300,6750.000,0.500,1171.000,1.000,765.000,5.000,1.000
"07/04/06","05:02:32","AMMA06",78270.000,"cc",28352.166,6.00,2835.217,1,6,0.100,36837.000,0.200,32909.000,0.300,6588.000,0.500,1170.000,1.000,766.000,5.000,0
"07/04/06","05:02:38","AMMA06",78338.000,"cc",28340.846,6.00,2834.085,1,6,0.100,36447.000,0.200,33286.000,0.300,6629.000,0.500,1184.000,1.000,791.000,5.000,1.000
"07/04/06","05:02:44","AMMA06",78045.000,"cc",28299.285,6.00,2829.929,1,6,0.100,36512.000,0.200,32838.000,0.300,6711.000,0.500,1212.000,1.000,772.000,5.000,0
"07/04/06","05:02:50","AMMA06",78817.000,"cc",28268.295,6.00,2826.830,1,6,0.100,36796.000,0.200,33346.000,0.300,6681.000,0.500,1188.000,1.000,806.000,5.000,0
"07/04/06","05:02:56","AMMA06",78011.000,"cc",28280.922,6.00,2828.092,1,6,0.100,36720.000,0.200,32972.000,0.300,6382.000,0.500,1188.000,1.000,749.000,5.000,0
"07/04/06","05:03:02","AMMA06",77491.000,"cc",28327.910,6.00,2832.791,1,6,0.100,36483.000,0.200,32655.000,0.300,6395.000,0.500,1197.000,1.000,760.000,5.000,1.000
"07/04/06","05:03:08","AMMA06",77014.000,"cc",28343.979,6.00,2834.398,1,6,0.100,36234.000,0.200,32443.000,0.300,6304.000,0.500,1207.000,1.000,825.000,5.000,1.000
"07/04/06","05:03:14","AMMA06",76215.000,"cc",28319.402,6.00,2831.940,1,6,0.100,35569.000,0.200,32530.000,0.300,6085.000,0.500,1240.000,1.000,791.000,5.000,0
"07/04/06","05:03:20","AMMA06",77760.000,"cc",28339.018,6.00,2833.902,1,6,0.100,36495.000,0.200,32794.000,0.300,6487.000,0.500,1214.000,1.000,769.000,5.000,1.000
"07/04/06","05:03:26","AMMA06",78432.000,"cc",28279.000,6.00,2827.900,1,6,0.100,36757.000,0.200,33080.000,0.300,6631.000,0.500,1200.000,1.000,763.000,5.000,1.000
"07/04/06","05:03:32","AMMA06",78594.000,"cc",28281.947,6.00,2828.195,1,6,0.100,36755.000,0.200,33209.000,0.300,6662.000,0.500,1174.000,1.000,794.000,5.000,0
"07/04/06","05:03:38","AMMA06",78738.000,"cc",28342.213,6.00,2834.221,1,6,0.100,36579.000,0.200,33611.000,0.300,6639.000,0.500,1194.000,1.000,715.000,5.000,0
"07/04/06","05:03:44","AMMA06",78421.000,"cc",28360.184,6.00,2836.019,1,6,0.100,36583.000,0.200,33256.000,0.300,6650.000,0.500,1166.000,1.000,766.000,5.000,0
"07/04/06","05:03:50","AMMA06",78974.000,"cc",28326.441,6.00,2832.644,1,6,0.100,36669.000,0.200,33538.000,0.300,6748.000,0.500,1195.000,1.000,824.000,5.000,0
"07/04/06","05:03:56","AMMA06",78805.000,"cc",28363.451,6.00,2836.345,1,6,0.100,36910.000,0.200,33362.000,0.300,6679.000,0.500,1156.000,1.000,698.000,5.000,0
"07/04/06","05:04:02","AMMA06",78678.000,"cc",28313.916,6.00,2831.392,1,6,0.100,36784.000,0.200,33209.000,0.300,6761.000,0.500,1130.000,1.000,794.000,5.000,0
"07/04/06","05:04:08","AMMA06",78441.000,"cc",28307.168,6.00,2830.717,1,6,0.100,36530.000,0.200,33268.000,0.300,6710.000,0.500,1141.000,1.000,791.000,5.000,1.000
"07/04/06","05:04:14","AMMA06",78964.000,"cc",28284.371,6.00,2828.437,1,6,0.100,36774.000,0.200,33427.000,0.300,6822.000,0.500,1180.000,1.000,760.000,5.000,1.000
"07/04/06","05:04:20","AMMA06",78749.000,"cc",28333.373,6.00,2833.337,1,6,0.100,36581.000,0.200,33509.000,0.300,6735.000,0.500,1186.000,1.000,738.000,5.000,0
"07/04/06","05:04:26","AMMA06",78575.000,"cc",28350.279,6.00,2835.028,1,6,0.100,36647.000,0.200,33186.000,0.300,6760.000,0.500,1237.000,1.000,744.000,5.000,1.000
"07/04/06","05:04:32","AMMA06",78418.000,"cc",28256.744,6.00,2825.675,1,6,0.100,36506.000,0.200,33320.000,0.300,6696.000,0.500,1166.000,1.000,730.000,5.000,0
"07/04/06","05:04:38","AMMA06",77958.000,"cc",28350.981,6.00,2835.098,1,6,0.100,36334.000,0.200,33235.000,0.300,6429.000,0.500,1216.000,1.000,744.000,5.000,0
"07/04/06","05:04:44","AMMA06",78680.000,"cc",28269.871,6.00,2826.987,1,6,0.100,36935.000,0.200,33042.000,0.300,6732.000,0.500,1218.000,1.000,752.000,5.000,1.000
"07/04/06","05:04:50","AMMA06",79641.000,"cc",28280.449,6.00,2828.045,1,6,0.100,36938.000,0.200,33795.000,0.300,6943.000,0.500,1209.000,1.000,754.000,5.000,2.000
"07/04/06","05:04:56","AMMA06",79811.000,"cc",28284.775,6.00,2828.478,1,6,0.100,37034.000,0.200,33886.000,0.300,6907.000,0.500,1200.000,1.000,783.000,5.000,1.000
"07/04/06","05:05:02","AMMA06",80173.000,"cc",28325.709,6.00,2832.571,1,6,0.100,37275.000,0.200,33853.000,0.300,7032.000,0.500,1179.000,1.000,834.000,5.000,0
"07/04/06","05:05:08","AMMA06",79604.000,"cc",28337.643,6.00,2833.764,1,6,0.100,36858.000,0.200,33867.000,0.300,6924.000,0.500,1195.000,1.000,760.000,5.000,0
"07/04/06","05:05:14","AMMA06",79422.000,"cc",28344.389,6.00,2834.439,1,6,0.100,36925.000,0.200,33690.000,0.300,6880.000,0.500,1200.000,1.000,727.000,5.000,0
"07/04/06","05:05:20","AMMA06",79574.000,"cc",28333.666,6.00,2833.367,1,6,0.100,36827.000,0.200,34044.000,0.300,6775.000,0.500,1204.000,1.000,723.000,5.000,1.000
"07/04/06","05:05:26","AMMA06",79157.000,"cc",28318.168,6.00,2831.817,1,6,0.100,36841.000,0.200,33578.000,0.300,6784.000,0.500,1187.000,1.000,766.000,5.000,1.000
"07/04/06","05:05:32","AMMA06",79443.000,"cc",28301.354,6.00,2830.136,1,6,0.100,37190.000,0.200,33600.000,0.300,6768.000,0.500,1175.000,1.000,709.000,5.000,1.000
"07/04/06","05:05:38","AMMA06",79687.000,"cc",28292.022,6.00,2829.202,1,6,0.100,37188.000,0.200,33767.000,0.300,6810.000,0.500,1207.000,1.000,714.000,5.000,1.000
"07/04/06","05:05:44","AMMA06",80154.000,"cc",28371.850,6.00,2837.185,1,6,0.100,37336.000,0.200,34076.000,0.300,6796.000,0.500,1222.000,1.000,724.000,5.000,0
"07/04/06","05:05:50","AMMA06",80283.000,"cc",28284.756,6.00,2828.476,1,6,0.100,37359.000,0.200,34054.000,0.300,6952.000,0.500,1164.000,1.000,754.000,5.000,0
"07/04/06","05:05:56","AMMA06",80960.000,"cc",28342.691,6.00,2834.269,1,6,0.100,38210.000,0.200,33915.000,0.300,6884.000,0.500,1164.000,1.000,787.000,5.000,0
"07/04/06","05:06:02","AMMA06",80840.000,"cc",28308.154,6.00,2830.816,1,6,0.100,37742.000,0.200,34197.000,0.300,6878.000,0.500,1214.000,1.000,806.000,5.000,3.000
"07/04/06","05:06:08","AMMA06",81228.000,"cc",28323.231,6.00,2832.323,1,6,0.100,38070.000,0.200,34128.000,0.300,7057.000,0.500,1201.000,1.000,771.000,5.000,1.000
"07/04/06","05:06:14","AMMA06",81138.000,"cc",28357.986,6.00,2835.799,1,6,0.100,38309.000,0.200,34036.000,0.300,6873.000,0.500,1201.000,1.000,718.000,5.000,1.000
"07/04/06","05:06:20","AMMA06",80368.000,"cc",28306.512,6.00,2830.651,1,6,0.100,37722.000,0.200,33681.000,0.300,6975.000,0.500,1193.000,1.000,796.000,5.000,1.000
"07/04/06","05:06:26","AMMA06",81345.000,"cc",28269.897,6.00,2826.990,1,6,0.100,38328.000,0.200,34208.000,0.300,6809.000,0.500,1206.000,1.000,793.000,5.000,1.000
"07/04/06","05:06:32","AMMA06",81313.000,"cc",28350.137,6.00,2835.014,1,6,0.100,38527.000,0.200,34144.000,0.300,6751.000,0.500,1175.000,1.000,716.000,5.000,0
"07/04/06","05:06:38","AMMA06",81386.000,"cc",28309.115,6.00,2830.912,1,6,0.100,38434.000,0.200,34061.000,0.300,6882.000,0.500,1219.000,1.000,790.000,5.000,0
"07/04/06","05:06:44","AMMA06",81134.000,"cc",28333.113,6.00,2833.312,1,6,0.100,38075.000,0.200,34305.000,0.300,6809.000,0.500,1211.000,1.000,734.000,5.000,0
"07/04/06","05:06:50","AMMA06",81440.000,"cc",28296.815,6.00,2829.682,1,6,0.100,38359.000,0.200,34325.000,0.300,6843.000,0.500,1199.000,1.000,714.000,5.000,0
"07/04/06","05:06:56","AMMA06",80891.000,"cc",28328.428,6.00,2832.843,1,6,0.100,38017.000,0.200,34127.000,0.300,6782.000,0.500,1189.000,1.000,774.000,5.000,2.000
"07/04/06","05:07:02","AMMA06",81536.000,"cc",28303.065,6.00,2830.307,1,6,0.100,38521.000,0.200,34193.000,0.300,6935.000,0.500,1174.000,1.000,713.000,5.000,0
"07/04/06","05:07:08","AMMA06",81313.000,"cc",28316.264,6.00,2831.627,1,6,0.100,38115.000,0.200,34165.000,0.300,7025.000,0.500,1271.000,1.000,737.000,5.000,0
"07/04/06","05:07:14","AMMA06",80947.000,"cc",28359.988,6.00,2835.999,1,6,0.100,38485.000,0.200,33893.000,0.300,6618.000,0.500,1212.000,1.000,739.000,5.000,0
"07/04/06","05:07:20","AMMA06",81279.000,"cc",28277.449,6.00,2827.745,1,6,0.100,38135.000,0.200,34321.000,0.300,6823.000,0.500,1247.000,1.000,753.000,5.000,0
"07/04/06","05:07:26","AMMA06",81576.000,"cc",28242.246,6.00,2824.225,1,6,0.100,38680.000,0.200,34126.000,0.300,6826.000,0.500,1153.000,1.000,790.000,5.000,1.000
"07/04/06","05:07:32","AMMA06",81462.000,"cc",28362.953,6.00,2836.295,1,6,0.100,38361.000,0.200,34302.000,0.300,6869.000,0.500,1213.000,1.000,717.000,5.000,0
"07/04/06","05:07:38","AMMA06",81577.000,"cc",28337.299,6.00,2833.730,1,6,0.100,38651.000,0.200,34163.000,0.300,6767.000,0.500,1235.000,1.000,761.000,5.000,0
"07/04/06","05:07:44","AMMA06",81618.000,"cc",28299.404,6.00,2829.941,1,6,0.100,38612.000,0.200,34378.000,0.300,6751.000,0.500,1164.000,1.000,713.000,5.000,0
"07/04/06","05:07:50","AMMA06",81787.000,"cc",28335.287,6.00,2833.529,1,6,0.100,38723.000,0.200,34365.000,0.300,6767.000,0.500,1204.000,1.000,727.000,5.000,1.000
"07/04/06","05:07:56","AMMA06",81727.000,"cc",28258.756,6.00,2825.876,1,6,0.100,38715.000,0.200,34178.000,0.300,6817.000,0.500,1214.000,1.000,803.000,5.000,0
"07/04/06","05:08:02","AMMA06",83107.000,"cc",28318.330,6.00,2831.833,1,6,0.100,39481.000,0.200,34867.000,0.300,6768.000,0.500,1191.000,1.000,800.000,5.000,0
"07/04/06","05:08:08","AMMA06",83692.000,"cc",28329.305,6.00,2832.931,1,6,0.100,39669.000,0.200,35070.000,0.300,7015.000,0.500,1160.000,1.000,777.000,5.000,1.000
"07/04/06","05:08:14","AMMA06",83162.000,"cc",28354.330,6.00,2835.433,1,6,0.100,39315.000,0.200,34763.000,0.300,7127.000,0.500,1201.000,1.000,756.000,5.000,0
"07/04/06","05:08:20","AMMA06",83031.000,"cc",28339.451,6.00,2833.945,1,6,0.100,39203.000,0.200,34867.000,0.300,6972.000,0.500,1184.000,1.000,805.000,5.000,0
"07/04/06","05:08:26","AMMA06",83653.000,"cc",28292.914,6.00,2829.292,1,6,0.100,39467.000,0.200,35241.000,0.300,7009.000,0.500,1143.000,1.000,793.000,5.000,0
"07/04/06","05:08:32","AMMA06",84272.000,"cc",28318.815,6.00,2831.882,1,6,0.100,39862.000,0.200,35326.000,0.300,7150.000,0.500,1216.000,1.000,718.000,5.000,0
"07/04/06","05:08:38","AMMA06",84197.000,"cc",28350.785,6.00,2835.079,1,6,0.100,39515.000,0.200,35554.000,0.300,7196.000,0.500,1197.000,1.000,734.000,5.000,1.000
"07/04/06","05:08:44","AMMA06",84468.000,"cc",28335.955,6.00,2833.596,1,6,0.100,39831.000,0.200,35373.000,0.300,7295.000,0.500,1197.000,1.000,772.000,5.000,0
"07/04/06","05:08:50","AMMA06",85074.000,"cc",28341.395,6.00,2834.140,1,6,0.100,40062.000,0.200,35733.000,0.300,7305.000,0.500,1243.000,1.000,731.000,5.000,0
"07/04/06","05:08:56","AMMA06",85909.000,"cc",28335.535,6.00,2833.554,1,6,0.100,40316.000,0.200,36160.000,0.300,7481.000,0.500,1197.000,1.000,755.000,5.000,0
"07/04/06","05:09:02","AMMA06",85804.000,"cc",28279.957,6.00,2827.996,1,6,0.100,40241.000,0.200,36165.000,0.300,7480.000,0.500,1149.000,1.000,768.000,5.000,1.000
"07/04/06","05:09:08","AMMA06",85554.000,"cc",28286.943,6.00,2828.695,1,6,0.100,40381.000,0.200,35730.000,0.300,7509.000,0.500,1184.000,1.000,750.000,5.000,0
"07/04/06","05:09:14","AMMA06",85073.000,"cc",28288.770,6.00,2828.877,1,6,0.100,39951.000,0.200,35673.000,0.300,7497.000,0.500,1245.000,1.000,706.000,5.000,1.000
"07/04/06","05:09:20","AMMA06",86694.000,"cc",28293.598,6.00,2829.360,1,6,0.100,40701.000,0.200,36197.000,0.300,7791.000,0.500,1224.000,1.000,781.000,5.000,0
"07/04/06","05:09:26","AMMA06",87502.000,"cc",28356.180,6.00,2835.618,1,6,0.100,40792.000,0.200,36706.000,0.300,7939.000,0.500,1266.000,1.000,798.000,5.000,1.000
"07/04/06","05:09:32","AMMA06",87256.000,"cc",28258.729,6.00,2825.873,1,6,0.100,40549.000,0.200,36746.000,0.300,7977.000,0.500,1187.000,1.000,797.000,5.000,0
"07/04/06","05:09:38","AMMA06",87436.000,"cc",28345.752,6.00,2834.575,1,6,0.100,40376.000,0.200,37037.000,0.300,8047.000,0.500,1193.000,1.000,783.000,5.000,0
"07/04/06","05:09:44","AMMA06",87728.000,"cc",28300.231,6.00,2830.023,1,6,0.100,40455.000,0.200,37071.000,0.300,8210.000,0.500,1220.000,1.000,772.000,5.000,0
"07/04/06","05:09:50","AMMA06",88139.000,"cc",28329.031,6.00,2832.903,1,6,0.100,40709.000,0.200,37067.000,0.300,8314.000,0.500,1236.000,1.000,813.000,5.000,0
"07/04/06","05:09:56","AMMA06",87685.000,"cc",28330.504,6.00,2833.051,1,6,0.100,40083.000,0.200,37204.000,0.300,8381.000,0.500,1233.000,1.000,784.000,5.000,0
"07/04/06","05:10:02","AMMA06",87755.000,"cc",28249.791,6.00,2824.979,1,6,0.100,40260.000,0.200,37159.000,0.300,8236.000,0.500,1262.000,1.000,836.000,5.000,2.000
"07/04/06","05:10:08","AMMA06",87940.000,"cc",28319.945,6.00,2831.995,1,6,0.100,40593.000,0.200,36933.000,0.300,8444.000,0.500,1231.000,1.000,739.000,5.000,0
"07/04/06","05:10:14","AMMA06",87630.000,"cc",28362.850,6.00,2836.285,1,6,0.100,39962.000,0.200,37056.000,0.300,8557.000,0.500,1275.000,1.000,780.000,5.000,0
"07/04/06","05:10:20","AMMA06",86096.000,"cc",28316.859,6.00,2831.686,1,6,0.100,39285.000,0.200,36547.000,0.300,8306.000,0.500,1195.000,1.000,763.000,5.000,0
"07/04/06","05:10:26","AMMA06",87484.000,"cc",28337.084,6.00,2833.709,1,6,0.100,40080.000,0.200,37032.000,0.300,8443.000,0.500,1197.000,1.000,732.000,5.000,0
"07/04/06","05:10:32","AMMA06",86241.000,"cc",28337.836,6.00,2833.784,1,6,0.100,39577.000,0.200,36465.000,0.300,8201.000,0.500,1227.000,1.000,771.000,5.000,0
"07/04/06","05:10:38","AMMA06",84002.000,"cc",28324.891,6.00,2832.489,1,6,0.100,37941.000,0.200,35829.000,0.300,8215.000,0.500,1218.000,1.000,799.000,5.000,0
"07/04/06","05:10:44","AMMA06",85450.000,"cc",28320.328,6.00,2832.033,1,6,0.100,38577.000,0.200,36611.000,0.300,8303.000,0.500,1191.000,1.000,768.000,5.000,0
"07/04/06","05:10:50","AMMA06",86205.000,"cc",28347.559,6.00,2834.756,1,6,0.100,39126.000,0.200,36613.000,0.300,8510.000,0.500,1193.000,1.000,763.000,5.000,0
"07/04/06","05:10:56","AMMA06",85620.000,"cc",28347.010,6.00,2834.701,1,6,0.100,38809.000,0.200,36456.000,0.300,8392.000,0.500,1217.000,1.000,745.000,5.000,1.000
"07/04/06","05:11:02","AMMA06",86163.000,"cc",28294.842,6.00,2829.484,1,6,0.100,38863.000,0.200,36701.000,0.300,8556.000,0.500,1235.000,1.000,807.000,5.000,1.000
"07/04/06","05:11:08","AMMA06",86776.000,"cc",28367.904,6.00,2836.791,1,6,0.100,39137.000,0.200,36870.000,0.300,8768.000,0.500,1199.000,1.000,802.000,5.000,0
"07/04/06","05:11:14","AMMA06",86335.000,"cc",28312.488,6.00,2831.249,1,6,0.100,39052.000,0.200,36731.000,0.300,8612.000,0.500,1127.000,1.000,812.000,5.000,1.000
"07/04/06","05:11:20","AMMA06",85856.000,"cc",28257.428,6.00,2825.743,1,6,0.100,38468.000,0.200,36781.000,0.300,8602.000,0.500,1256.000,1.000,749.000,5.000,0
"07/04/06","05:11:26","AMMA06",85772.000,"cc",28340.379,6.00,2834.038,1,6,0.100,38559.000,0.200,36545.000,0.300,8611.000,0.500,1252.000,1.000,805.000,5.000,0
"07/04/06","05:11:32","AMMA06",85334.000,"cc",28328.842,6.00,2832.884,1,6,0.100,38457.000,0.200,36333.000,0.300,8568.000,0.500,1233.000,1.000,743.000,5.000,0
"07/04/06","05:11:38","AMMA06",83495.000,"cc",28355.887,6.00,2835.589,1,6,0.100,37651.000,0.200,35528.000,0.300,8375.000,0.500,1173.000,1.000,768.000,5.000,0
"07/04/06","05:11:44","AMMA06",80243.000,"cc",28298.008,6.00,2829.801,1,6,0.100,35575.000,0.200,35062.000,0.300,7736.000,0.500,1178.000,1.000,691.000,5.000,1.000
"07/04/06","05:11:50","AMMA06",75819.000,"cc",28288.887,6.00,2828.889,1,6,0.100,33943.000,0.200,32800.000,0.300,7066.000,0.500,1184.000,1.000,826.000,5.000,0
"07/04/06","05:11:56","AMMA06",75042.000,"cc",28270.992,6.00,2827.099,1,6,0.100,33242.000,0.200,32823.000,0.300,6986.000,0.500,1173.000,1.000,817.000,5.000,1.000
"07/04/06","05:12:02","AMMA06",75606.000,"cc",28304.223,6.00,2830.422,1,6,0.100,33937.000,0.200,32974.000,0.300,6720.000,0.500,1208.000,1.000,766.000,5.000,1.000
"07/04/06","05:12:08","AMMA06",75308.000,"cc",28301.676,6.00,2830.168,1,6,0.100,33226.000,0.200,33262.000,0.300,6865.000,0.500,1162.000,1.000,793.000,5.000,0
"07/04/06","05:12:14","AMMA06",75248.000,"cc",28352.461,6.00,2835.246,1,6,0.100,33444.000,0.200,32986.000,0.300,6812.000,0.500,1222.000,1.000,782.000,5.000,2.000
"07/04/06","05:12:20","AMMA06",75081.000,"cc",28342.900,6.00,2834.290,1,6,0.100,33232.000,0.200,33035.000,0.300,6847.000,0.500,1199.000,1.000,767.000,5.000,1.000
"07/04/06","05:12:26","AMMA06",75379.000,"cc",28324.447,6.00,2832.445,1,6,0.100,33452.000,0.200,33094.000,0.300,6904.000,0.500,1121.000,1.000,808.000,5.000,0
"07/04/06","05:12:32","AMMA06",74911.000,"cc",28342.865,6.00,2834.287,1,6,0.100,33662.000,0.200,32489.000,0.300,6788.000,0.500,1168.000,1.000,804.000,5.000,0
"07/04/06","05:12:38","AMMA06",75296.000,"cc",28258.115,6.00,2825.812,1,6,0.100,33498.000,0.200,32999.000,0.300,6879.000,0.500,1193.000,1.000,727.000,5.000,0
"07/04/06","05:12:44","AMMA06",74954.000,"cc",28309.400,6.00,2830.940,1,6,0.100,33407.000,0.200,32961.000,0.300,6618.000,0.500,1164.000,1.000,804.000,5.000,0
"07/04/06","05:12:50","AMMA06",74737.000,"cc",28289.422,6.00,2828.942,1,6,0.100,33095.000,0.200,33067.000,0.300,6624.000,0.500,1139.000,1.000,811.000,5.000,1.000
"07/04/06","05:12:56","AMMA06",74202.000,"cc",28308.662,6.00,2830.867,1,6,0.100,32823.000,0.200,32730.000,0.300,6685.000,0.500,1144.000,1.000,819.000,5.000,1.000
"07/04/06","05:13:02","AMMA06",74074.000,"cc",28307.900,6.00,2830.790,1,6,0.100,32985.000,0.200,32708.000,0.300,6509.000,0.500,1134.000,1.000,738.000,5.000,0
"07/04/06","05:13:08","AMMA06",74088.000,"cc",28332.803,6.00,2833.281,1,6,0.100,32939.000,0.200,32618.000,0.300,6647.000,0.500,1126.000,1.000,757.000,5.000,1.000
"07/04/06","05:13:14","AMMA06",74303.000,"cc",28350.525,6.00,2835.053,1,6,0.100,33099.000,0.200,32695.000,0.300,6551.000,0.500,1145.000,1.000,813.000,5.000,0
"07/04/06","05:13:20","AMMA06",73366.000,"cc",28343.484,6.00,2834.349,1,6,0.100,32495.000,0.200,32513.000,0.300,6442.000,0.500,1126.000,1.000,790.000,5.000,0
"07/04/06","05:13:26","AMMA06",73310.000,"cc",28330.131,6.00,2833.013,1,6,0.100,32482.000,0.200,32340.000,0.300,6535.000,0.500,1180.000,1.000,771.000,5.000,2.000
"07/04/06","05:13:32","AMMA06",73610.000,"cc",28293.756,6.00,2829.376,1,6,0.100,32479.000,0.200,32717.000,0.300,6536.000,0.500,1131.000,1.000,747.000,5.000,0
"07/04/06","05:13:38","AMMA06",74451.000,"cc",28245.887,6.00,2824.589,1,6,0.100,33144.000,0.200,33007.000,0.300,6392.000,0.500,1174.000,1.000,732.000,5.000,2.000
"07/04/06","05:13:44","AMMA06",74036.000,"cc",28333.875,6.00,2833.388,1,6,0.100,32700.000,0.200,32750.000,0.300,6642.000,0.500,1142.000,1.000,801.000,5.000,1.000
"07/04/06","05:13:50","AMMA06",73605.000,"cc",28285.600,6.00,2828.560,1,6,0.100,32826.000,0.200,32212.000,0.300,6727.000,0.500,1124.000,1.000,716.000,5.000,0
"07/04/06","05:13:56","AMMA06",74142.000,"cc",28331.090,6.00,2833.109,1,6,0.100,33044.000,0.200,32720.000,0.300,6472.000,0.500,1132.000,1.000,770.000,5.000,4.000
"07/04/06","05:14:02","AMMA06",73638.000,"cc",28310.174,6.00,2831.018,1,6,0.100,32397.000,0.200,32623.000,0.300,6702.000,0.500,1168.000,1.000,748.000,5.000,0